軌道要素
Epoch 2022 Aug. 9.0 TT = JDT 2459800.5
T 2022 Aug. 17.83783 TT Rudenko
q 2.3785360 (2000.0) P Q
n 0.12048786 Peri. 213.73785 +0.94142717 +0.33687101
a 4.0598238 Node 126.56846 -0.30504152 +0.87001845
e 0.4141283 Incl. 1.08854 -0.14375168 +0.35998030
P 8.18
From 132 observations 1998 Nov. 22-2022 July 2, mean residual 1".5.
|